Location: �clusier
(49.9361°N, 2.7869°E)
Time: 22:37:24
(UTC+00:00)

Cosmos 1606 Rocket - Pass Details

Date: 16 June 2021
Orbit: 602 x 633 km, 82.5° (Epoch: 01 August)

Event Time Altitude Azimuth Distance (km) Brightness Sun altitude
Rises 22:03:04 0° 354° (N) 2,942 8.5 -13.0°
Reaches altitude 10° 22:05:26 10° 1° (N) 2,028 7.3 -13.1°
Maximum altitude 22:09:44 43° 74° (ENE) 885 4.3 -13.4°
Enters shadow 22:12:30 20° 138° (SE) 1,466 4.9 -13.6°
